This demonstration page uses our WeatherBlox Daily Observations layout. Learn more.

Left ArrowRight Arrow

Hourly Observations for February 15, 2016

Temp ( °F °C ) Dew Point ( °F °C ) Humidity (%) Winds ( mph kmh ) Pressure ( in mb ) Visibility ( mi km ) Precip ( " mm )
12:15 am 00:15 Partly Cloudy 36 2.1 28 -2.1 74 74 NW 9 15 29.94 1014 10 16 N/A
12:35 am 00:35 Mostly Cloudy 36 2.3 28 -2 74 74 NW 9 15 29.94 1014 10 16 N/A
12:55 am 00:55 Partly Cloudy 35 1.6 28 -2.4 75 75 NW 10 17 29.94 1014 10 16 N/A
1:15 am 01:15 Clear 33 0.8 28 -2.5 79 79 NW 10 17 29.97 1015 10 16 N/A
1:35 am 01:35 Clear 34 1 28 -2.5 78 78 WNW 12 19 29.97 1015 10 16 N/A
1:55 am 01:55 Clear 33 0.7 27 -2.7 78 78 NW 10 17 29.97 1015 10 16 N/A
2:15 am 02:15 Clear 33 0.3 27 -2.7 81 81 NW 9 15 29.97 1015 10 16 N/A
2:35 am 02:35 Clear 34 1 28 -2.3 79 79 NW 9 15 29.97 1015 10 16 N/A
2:55 am 02:55 Clear 34 1 28 -2.2 79 79 NW 9 15 29.97 1015 10 16 N/A
3:15 am 03:15 Clear 33 0.7 28 -2.5 79 79 NNW 9 15 29.97 1015 10 16 N/A
3:35 am 03:35 Clear 33 0.5 28 -2.5 81 81 NW 9 15 29.94 1014 10 16 N/A
3:55 am 03:55 Clear 33 0.3 28 -2.5 82 82 NW 7 11 29.94 1014 10 16 N/A
4:15 am 04:15 Clear 31 -0.5 27 -3 83 83 NW 7 11 29.94 1014 10 16 N/A
4:35 am 04:35 Clear 32 undefined 27 -2.8 82 82 NW 7 11 29.94 1014 10 16 N/A
4:55 am 04:55 Clear 31 -0.6 26 -3.1 83 83 WNW 7 11 29.94 1014 10 16 N/A
5:15 am 05:15 Clear 31 -0.8 26 -3.4 83 83 WNW 7 11 29.94 1014 10 16 N/A
5:35 am 05:35 Clear 31 -0.5 27 -3 83 83 WNW 7 11 29.97 1015 10 16 N/A
5:55 am 05:55 Clear 29 -1.6 25 -3.8 85 85 W 9 15 30.00 1016 10 16 N/A
6:15 am 06:15 Clear 30 -1.1 26 -3.3 85 85 W 9 15 29.94 1014 10 16 N/A
6:35 am 06:35 Clear 30 -1.1 26 -3.1 86 86 W 7 11 29.94 1014 10 16 N/A
6:55 am 06:55 Clear 30 -1 26 -3.1 86 86 W 9 15 29.94 1014 10 16 N/A
7:15 am 07:15 Clear 29 -1.6 25 -3.7 86 86 W 8 13 29.97 1015 10 16 N/A
7:35 am 07:35 Sunny 29 -1.5 26 -3.5 86 86 W 10 17 29.97 1015 10 16 N/A
7:55 am 07:55 Sunny 30 -1 26 -3.4 84 84 W 9 15 29.97 1015 10 16 N/A
8:15 am 08:15 Sunny 31 -0.5 26 -3.3 82 82 W 9 15 29.97 1015 10 16 N/A
8:35 am 08:35 Sunny 32 0.1 26 -3.2 79 79 W 9 15 29.97 1015 10 16 N/A
8:55 am 08:55 Sunny 33 0.5 27 -3 78 78 W 7 11 29.97 1015 10 16 N/A
9:15 am 09:15 Sunny 34 0.9 27 -2.8 77 77 W 7 11 29.94 1014 10 16 N/A
9:35 am 09:35 Sunny 35 1.9 28 -2.2 75 75 N N/A 29.91 1013 10 16 N/A
9:55 am 09:55 Sunny 37 2.6 28 -2.1 71 71 W 7 11 29.91 1013 10 16 N/A
10:15 am 10:15 Sunny 38 3.4 29 -1.8 69 69 W 10 17 29.91 1013 10 16 N/A
10:35 am 10:35 Sunny 40 4.6 29 -1.5 65 65 W 8 13 29.85 1011 10 16 N/A
10:55 am 10:55 Sunny 40 4.5 29 -1.5 65 65 W 9 15 29.85 1011 10 16 N/A
11:15 am 11:15 Sunny 41 5.1 30 -1.3 64 64 W 10 17 29.85 1011 10 16 N/A
11:35 am 11:35 Sunny 42 5.8 30 -1.3 61 61 W 13 20 29.85 1011 10 16 N/A
11:55 am 11:55 Sunny 43 6.1 30 -0.9 61 61 W 9 15 29.85 1011 10 16 N/A
12:15 pm 12:15 Sunny 43 5.9 31 -0.8 62 62 W 13 20 29.85 1011 10 16 N/A
12:35 pm 12:35 Sunny 43 6.3 30 -1 60 60 W 10 17 29.83 1010 10 16 N/A
12:55 pm 12:55 Sunny 44 6.7 31 -0.7 60 60 WSW 9 15 29.83 1010 10 16 N/A
1:15 pm 13:15 Sunny 44 6.6 31 -0.5 61 61 SW 7 11 29.83 1010 10 16 N/A
1:35 pm 13:35 Sunny 44 6.6 32 -0.2 62 62 SW 9 15 29.83 1010 10 16 N/A
1:55 pm 13:55 Sunny 45 7.1 32 undefined 61 61 SW 8 13 29.77 1008 10 16 N/A
2:15 pm 14:15 Sunny 45 7.1 31 -0.3 60 60 SW 12 19 29.77 1008 10 16 N/A
2:35 pm 14:35 Partly Cloudy 45 7.1 31 -0.5 59 59 SW 7 11 29.77 1008 10 16 N/A
2:55 pm 14:55 Partly Cloudy 46 7.7 32 undefined 59 59 WSW 9 15 29.74 1007 10 16 N/A
3:15 pm 15:15 Partly Cloudy 46 8 32 -0.1 57 57 SW 8 13 29.74 1007 10 16 N/A
3:35 pm 15:35 Sunny 46 7.6 32 0.1 59 59 SW 5 7 29.74 1007 10 16 N/A
3:55 pm 15:55 Sunny 46 7.5 32 0.1 60 60 SW 6 9 29.74 1007 10 16 N/A
4:15 pm 16:15 Partly Cloudy 46 7.6 33 0.3 60 60 SW 7 11 29.71 1006 10 16 N/A
4:35 pm 16:35 Mostly Cloudy 48 8.7 33 0.6 57 57 SW 5 7 29.71 1006 10 16 N/A
4:55 pm 16:55 Partly Cloudy 47 8.3 33 0.4 58 58 SW 3 6 29.71 1006 10 16 N/A
5:15 pm 17:15 Sunny 46 8 33 0.4 59 59 N N/A 29.71 1006 10 16 N/A
5:35 pm 17:35 Sunny 46 7.5 32 undefined 59 59 S 3 6 29.71 1006 10 16 N/A
5:55 pm 17:55 Sunny 44 6.5 32 undefined 64 64 S 3 6 29.71 1006 10 16 N/A
6:15 pm 18:15 Clear 43 6 32 undefined 66 66 SSW 3 6 29.68 1005 10 16 N/A
6:35 pm 18:35 Clear 42 5.3 32 undefined 69 69 SSW 5 7 29.71 1006 10 16 N/A
6:55 pm 18:55 Mostly Cloudy 41 5.1 32 undefined 70 70 SSW 5 7 29.71 1006 10 16 N/A
7:15 pm 19:15 Partly Cloudy 40 4.5 32 undefined 73 73 SW 3 6 29.71 1006 10 16 N/A
7:35 pm 19:35 Partly Cloudy 40 4.7 32 undefined 72 72 SW 6 9 29.71 1006 10 16 N/A
7:55 pm 19:55 Partly Cloudy 41 5.1 32 undefined 70 70 W 5 7 29.71 1006 10 16 N/A
8:15 pm 20:15 Mostly Cloudy 42 5.5 32 0.1 69 69 W 8 13 29.68 1005 10 16 N/A
8:35 pm 20:35 Mostly Cloudy 40 4.7 32 undefined 72 72 W 7 11 29.71 1006 10 16 N/A
8:55 pm 20:55 Clear 43 6.1 32 0.2 66 66 W 12 19 29.68 1005 10 16 N/A
9:15 pm 21:15 Partly Cloudy 43 6.2 33 0.7 68 68 W 10 17 29.74 1007 10 16 N/A
9:35 pm 21:35 Mostly Cloudy 45 7 35 1.5 68 68 WNW 12 19 29.71 1006 10 16 N/A
9:55 pm 21:55 Cloudy with Drizzle 44 6.4 35 1.8 73 73 WNW 15 24 29.74 1007 10 16 N/A
10:15 pm 22:15 Cloudy with Light Rain 42 5.6 36 2 78 78 NW 13 20 29.77 1008 10 16 N/A
10:35 pm 22:35 Cloudy 43 6.1 37 2.6 79 79 W 10 17 29.77 1008 10 16 N/A
10:55 pm 22:55 Mostly Cloudy 41 5.1 36 2.2 82 82 WNW 8 13 29.74 1007 10 16 N/A
11:15 pm 23:15 Partly Cloudy 41 5.2 35 1.9 79 79 W 12 19 29.74 1007 10 16 N/A
11:35 pm 23:35 Mostly Cloudy 42 5.6 34 1 73 73 NW 13 20 29.77 1008 10 16 N/A
11:55 pm 23:55 Partly Cloudy 42 5.5 34 1 73 73 NW 13 20 29.80 1009 10 16 N/A

Powered by AerisWeather